[[{"header":{"parameterUnit":"m.s-1","parameterCategory":1,"la1":30.2991,"la2":30.254,"lo1":-89.0895,"lo2":-89.0444,"dy":0.0017,"dx":0.0017,"nx":28,"ny":28,"refTime":"2025-04-16T21:00:00:Z","depth":0,"parameterNumber":2,"parameterNumberName":"U-component_of_WINDS"},"data":[0,0,0,0,0,0,0,0,0,0,0,0,0,0,0,0,0,0,0,0,0,0,0,0,0,0,0,0,0,0,0,0,0,0,0,0,0,0,0,0,0,0,0,0,0,0,0,0,0,0,0,0,0,0,0,0,0,0,0.6391,0.6392,0,0.6518,0.652,0.6521,0.6583,0.6583,0.6583,0.6582,0.6712,0.6715,0.6719,0,0,0,0,0,0,0,0,0,0,0,0,0,0.6198,0.6201,0.6391,0.6392,0.6394,0.6518,0.652,0.6522,0.6583,0.6583,0.6583,0.6582,0.6711,0.6715,0.6719,0,0,0,0,0,0,0,0,0,0,0,0,0,0.6299,0.6202,0.6391,0.6439,0.6445,0.6518,0.652,0.6522,0.6583,0.6583,0.6582,0.6582,0.6709,0.6715,0.672,0.6753,0,0,0.6736,0.6738,0,0,0,0,0,0,0,0,0.6293,0.6306,0.6431,0.6436,0.6443,0.6535,0.65,0.66,0.6583,0.653,0.6582,0.6582,0.6653,0.6663,0.6687,0.6759,0.6765,0.6736,0.6739,0.6742,0.6743,0,0,0,0,0,0,0,0.6286,0.6301,0.6441,0.6432,0.644,0.6454,0.6469,0.6519,0.659,0.6535,0.654,0.6554,0.6656,0.6682,0.669,0.6767,0.6736,0.6741,0.6744,0.6746,0.6872,0.6873,0,0,0,0,0,0,0.6271,0.6295,0.6437,0.6445,0.6366,0.6458,0.6474,0.6505,0.659,0.6603,0.6554,0.6556,0.6673,0.6684,0.6695,0.674,0.6742,0.6746,0.6749,0.6872,0.6873,0.6873,0,0,0,0,0,0,0.6267,0.6283,0.6432,0.6371,0.6391,0.6461,0.6496,0.6508,0.6533,0.6604,0.6617,0.6567,0.6673,0.6688,0.6738,0.6745,0.6749,0.6754,0.6872,0.6872,0.6873,0.683,0,0,0,0,0,0,0.6261,0.6282,0.6296,0.6371,0.6394,0.6474,0.6496,0.651,0.6542,0.6547,0.662,0.6632,0.6674,0.673,0.6743,0.6753,0.6758,0.6872,0.6872,0.6873,0.6831,0.6828,0.6826,0,0,0,0,0,0.6254,0.6278,0.6296,0.6313,0.6413,0.6474,0.6487,0.6535,0.6543,0.6557,0.6602,0.663,0.6742,0.6735,0.675,0.6761,0.6872,0.6872,0.6873,0.6832,0.6829,0.6826,0,0,0,0,0,0,0.6202,0.6289,0.631,0.6359,0.6409,0.6484,0.6504,0.6531,0.6579,0.6581,0.6639,0.6655,0.67,0.6736,0.6726,0.6798,0.6809,0.6813,0.6773,0.6771,0.6769,0.6759,0.6762,0,0,0,0,0,0.6196,0.6238,0.6312,0.6349,0.6372,0.6433,0.6462,0.6495,0.6548,0.6569,0.6618,0.6669,0.6715,0.6745,0.6792,0.6836,0.6852,0.6851,0.6848,0.6846,0.6849,0.6874,0.6874,0.6874,0.6874,0.6874,0,0,0.6185,0.6237,0.6261,0.634,0.6382,0.6424,0.6451,0.6494,0.6526,0.6576,0.6627,0.6664,0.6724,0.6771,0.6794,0.6802,0.6852,0.6847,0.6845,0.6849,0.6875,0.6875,0.6875,0.6875,0.6875,0.6875,0,0,0.6185,0.623,0.6265,0.6306,0.637,0.641,0.6418,0.649,0.6517,0.6568,0.6606,0.6644,0.6724,0.6765,0.6796,0.681,0.6837,0.6824,0.6813,0.6837,0.6837,0.6837,0.6842,0.6843,0.6826,0.6826,0.6826,0,0.6163,0.6229,0.6279,0.6321,0.6354,0.6401,0.6436,0.6474,0.6549,0.657,0.6578,0.6678,0.6722,0.6779,0.6782,0.6806,0.6817,0.6816,0.6833,0.6834,0.6835,0.684,0.6842,0.6824,0.6824,0.6824,0.6824,0,0.6198,0.6242,0.6263,0.6335,0.637,0.6408,0.6464,0.6493,0.6522,0.6562,0.6613,0.6667,0.6725,0.6741,0.677,0.6802,0.6805,0.6822,0.6835,0.6832,0.6838,0.684,0.6821,0.6822,0.6822,0.6823,0,0,0.6171,0.6269,0.6276,0.6309,0.6381,0.6416,0.6456,0.6513,0.6537,0.6587,0.6621,0.6686,0.6702,0.6737,0.6771,0.6792,0.68,0.6807,0.6809,0.6804,0.6838,0.6826,0.6827,0.6818,0.6818,0.6819,0.6833,0,0.6182,0.6256,0.6302,0.6357,0.6398,0.6443,0.6477,0.6525,0.6562,0.6602,0.6643,0.6688,0.6706,0.6727,0.675,0.6794,0.6808,0.6794,0.685,0.6852,0.6834,0.6831,0.6818,0.6829,0.6836,0.6837,0.6837,0,0.6205,0.6254,0.6313,0.638,0.6399,0.643,0.6485,0.6523,0.6578,0.6603,0.6642,0.6676,0.6718,0.6727,0.6787,0.6776,0.6802,0.6827,0.6828,0.6836,0.6844,0.6838,0.6833,0.6835,0.6841,0.6841,0.6841,0,0.6179,0.626,0.6305,0.6332,0.6412,0.6432,0.6466,0.652,0.6551,0.6599,0.662,0.6672,0.6701,0.6741,0.6787,0.6789,0.6842,0.6855,0.6864,0.6863,0.6874,0.6873,0.6874,0.689,0.689,0.689,0.6889,0,0.6188,0.6222,0.6295,0.6323,0.6362,0.6414,0.6452,0.6489,0.6537,0.6573,0.6614,0.6646,0.6706,0.6746,0.6782,0.6826,0.6839,0.686,0.687,0.6857,0.6854,0.6875,0.6876,0.689,0.689,0.689,0.689,0,0.6166,0.6216,0.6269,0.634,0.6358,0.6384,0.6444,0.6473,0.6511,0.6556,0.6569,0.663,0.6679,0.6729,0.6795,0.682,0.6862,0.6875,0.6844,0.6849,0.6856,0.6855,0.687,0.6875,0.6887,0.6887,0.6887,0,0.6168,0.6196,0.6269,0.6296,0.6329,0.6372,0.6403,0.6455,0.6486,0.655,0.657,0.6622,0.6666,0.6742,0.6792,0.6842,0.6857,0.6858,0.6864,0.685,0.6857,0.6855,0.6858,0.6857,0.6856,0.6856,0.6856,0,0.6166,0.619,0.6234,0.6287,0.6323,0.6368,0.6413,0.6432,0.6493,0.6526,0.6576,0.661,0.6677,0.6728,0.6784,0.6818,0.6847,0.6853,0.6858,0.6846,0.6826,0.6837,0.6838,0.6853,0.6853,0.6853,0.6853,0.6854,0.6157,0.6183,0.6239,0.6287,0.6326,0.6367,0.6398,0.644,0.6483,0.6541,0.6569,0.6619,0.6672,0.675,0.6784,0.6823,0.6832,0.6839,0.6841,0.6842,0.6839,0.6819,0.6834,0.6834,0.6834,0.6834,0.6834,0,0.6158,0.6195,0.6239,0.6301,0.6338,0.6361,0.6413,0.6442,0.6486,0.6533,0.6575,0.6632,0.6681,0.6734,0.6786,0.6808,0.6822,0.682,0.6819,0.6827,0.6828,0.6819,0.6807,0.6807,0.6807,0.6807,0.6807,0.6807,0.6163,0.6208,0.6237,0.6302,0.634,0.6389,0.6416,0.6454,0.6492,0.6554,0.6595,0.6629,0.6679,0.6734,0.678,0.6794,0.6812,0.6806,0.6824,0.6824,0.6826,0.6828,0.682,0.6809,0.6809,0.6819,0.6819,0.6819]},{"header":{"parameterUnit":"m.s-1","parameterCategory":1,"la1":30.2991,"la2":30.254,"lo1":-89.0895,"lo2":-89.0444,"dy":0.0017,"dx":0.0017,"nx":28,"ny":28,"refTime":"2025-04-16T21:00:00:Z","depth":0,"parameterNumber":3,"parameterNumberName":"V-component_of_WINDS"},"data":[0,0,0,0,0,0,0,0,0,0,0,0,0,0,0,0,0,0,0,0,0,0,0,0,0,0,0,0,0,0,0,0,0,0,0,0,0,0,0,0,0,0,0,0,0,0,0,0,0,0,0,0,0,0,0,0,0,0,2.7342,2.7342,0,2.7311,2.7311,2.731,2.7248,2.7246,2.7245,2.7244,2.7212,2.7212,2.7212,0,0,0,0,0,0,0,0,0,0,0,0,0,2.7346,2.7346,2.7342,2.7342,2.7342,2.7311,2.7311,2.731,2.7248,2.7246,2.7245,2.7243,2.7212,2.7212,2.7212,0,0,0,0,0,0,0,0,0,0,0,0,0,2.7332,2.7346,2.7342,2.7307,2.7303,2.7311,2.7311,2.731,2.7248,2.7246,2.7244,2.7243,2.7211,2.7212,2.7212,2.7253,0,0,2.7214,2.7214,0,0,0,0,0,0,0,0,2.7333,2.7332,2.7312,2.7309,2.7305,2.7281,2.73,2.7291,2.7249,2.7269,2.7244,2.7242,2.7236,2.7235,2.7233,2.7251,2.725,2.7214,2.7214,2.7214,2.7214,0,0,0,0,0,0,0,2.7334,2.7333,2.733,2.7312,2.7308,2.7292,2.7288,2.7298,2.7264,2.7267,2.7262,2.726,2.7234,2.7233,2.7232,2.7249,2.7214,2.7214,2.7214,2.7215,2.7296,2.7298,0,0,0,0,0,0,2.734,2.7334,2.7331,2.7329,2.7315,2.7293,2.7289,2.7291,2.7263,2.7257,2.7261,2.7257,2.7233,2.7231,2.723,2.7273,2.7214,2.7215,2.7215,2.7294,2.7296,2.7298,0,0,0,0,0,0,2.7341,2.7341,2.7332,2.733,2.7328,2.7295,2.7298,2.7291,2.729,2.7259,2.7252,2.7266,2.7231,2.723,2.7247,2.7271,2.7215,2.7215,2.7292,2.7295,2.7297,2.7361,0,0,0,0,0,0,2.7341,2.7341,2.7357,2.7331,2.7328,2.735,2.73,2.7292,2.7291,2.7285,2.7262,2.7256,2.723,2.7246,2.7247,2.7271,2.7216,2.7289,2.7293,2.7296,2.7357,2.7366,2.7374,0,0,0,0,0,2.7342,2.7377,2.7358,2.7358,2.7347,2.7352,2.735,2.7319,2.7293,2.7308,2.7287,2.7257,2.7269,2.7249,2.7249,2.7273,2.7288,2.7292,2.7296,2.7353,2.7364,2.7373,0,0,0,0,0,0,2.7406,2.7373,2.7352,2.738,2.7369,2.7341,2.7359,2.7332,2.7328,2.7323,2.7284,2.7279,2.7301,2.7289,2.7267,2.7309,2.7273,2.7278,2.7316,2.7327,2.7335,2.7336,2.7216,0,0,0,0,0,2.7424,2.7431,2.7401,2.7428,2.7424,2.7393,2.7393,2.737,2.7357,2.7353,2.7334,2.7322,2.7323,2.7324,2.7324,2.7355,2.7348,2.7372,2.738,2.7387,2.7391,2.7404,2.7413,2.7312,2.7312,2.7312,0,0,2.746,2.7442,2.7449,2.7441,2.743,2.7436,2.7389,2.7399,2.7403,2.7354,2.7368,2.7354,2.7339,2.7362,2.7372,2.7353,2.7417,2.7393,2.7399,2.7398,2.7409,2.7419,2.7427,2.7315,2.7314,2.7314,0,0,2.7529,2.7518,2.7538,2.7527,2.7511,2.749,2.7495,2.747,2.7459,2.7473,2.7435,2.744,2.7443,2.7432,2.7427,2.7491,2.7461,2.7492,2.7535,2.7548,2.7556,2.7563,2.7583,2.7591,2.7496,2.7496,2.7496,0,2.7576,2.7585,2.7552,2.7563,2.7559,2.7515,2.7534,2.7526,2.751,2.7508,2.7488,2.7489,2.7476,2.7495,2.751,2.7509,2.7511,2.7493,2.7558,2.7564,2.757,2.7589,2.7597,2.75,2.7499,2.7499,2.7499,0,2.7642,2.7649,2.7667,2.7652,2.7651,2.7667,2.7635,2.7637,2.7614,2.7595,2.7608,2.759,2.7584,2.7587,2.7565,2.7603,2.7591,2.7565,2.7527,2.7584,2.7601,2.7608,2.7505,2.7504,2.7503,2.7502,0,0,2.7751,2.7716,2.7723,2.7715,2.7693,2.7697,2.771,2.7704,2.7706,2.7696,2.7705,2.7708,2.7682,2.7677,2.7653,2.7665,2.7713,2.7636,2.7635,2.7649,2.775,2.7768,2.7777,2.7694,2.7695,2.7696,2.775,0,2.7813,2.7833,2.7802,2.7829,2.7833,2.779,2.7801,2.7788,2.777,2.7771,2.7751,2.7752,2.772,2.7716,2.7726,2.7705,2.7732,2.7701,2.7699,2.77,2.7702,2.7786,2.7806,2.7859,2.7757,2.7758,2.7759,0,2.7888,2.7881,2.7908,2.7882,2.7883,2.7894,2.7884,2.7886,2.787,2.7855,2.7849,2.782,2.7829,2.7794,2.7805,2.7785,2.7782,2.7772,2.7773,2.777,2.7731,2.7784,2.7875,2.7882,2.7769,2.7769,2.7768,0,2.7961,2.7959,2.7974,2.7969,2.794,2.7948,2.7936,2.7918,2.7916,2.7907,2.7905,2.7898,2.7894,2.7888,2.7858,2.7836,2.7872,2.7835,2.7859,2.7859,2.7867,2.7866,2.7957,2.7869,2.7869,2.7869,2.7869,0,2.8033,2.805,2.8006,2.8015,2.8033,2.7998,2.8016,2.8,2.7984,2.7988,2.7951,2.7956,2.7917,2.7916,2.7893,2.7904,2.7903,2.7891,2.7884,2.7893,2.7894,2.7889,2.7884,2.7871,2.7871,2.787,2.787,0,2.8117,2.8089,2.8102,2.8073,2.8066,2.808,2.8055,2.8061,2.8041,2.8046,2.8046,2.8013,2.8011,2.798,2.7972,2.7956,2.7975,2.7963,2.7981,2.7976,2.8,2.7997,2.8088,2.8097,2.8007,2.8008,2.8009,0,2.8164,2.8176,2.8148,2.8148,2.8138,2.8139,2.8135,2.8101,2.8099,2.808,2.8088,2.8083,2.8077,2.8075,2.805,2.8043,2.8028,2.8061,2.8027,2.8034,2.8025,2.8024,2.8024,2.8067,2.8068,2.8069,2.807,0,2.8248,2.8233,2.823,2.8221,2.8218,2.821,2.8199,2.8201,2.8163,2.8162,2.8159,2.8154,2.8145,2.8139,2.8127,2.8114,2.8085,2.8081,2.8086,2.8094,2.8103,2.8095,2.7998,2.8079,2.8078,2.8077,2.8077,2.8076,2.8313,2.8321,2.8302,2.8299,2.8287,2.8277,2.8281,2.8261,2.8258,2.8247,2.8227,2.8226,2.8208,2.8188,2.8177,2.8176,2.8159,2.8166,2.8168,2.8169,2.8173,2.8105,2.8174,2.8173,2.8173,2.8173,2.8173,0,2.8393,2.8379,2.8376,2.8362,2.8359,2.8333,2.8319,2.8318,2.8318,2.8304,2.8298,2.8293,2.8287,2.8262,2.8252,2.8256,2.8242,2.8254,2.8252,2.8249,2.819,2.8186,2.8265,2.8265,2.8265,2.8265,2.8265,2.8265,2.8434,2.8445,2.8428,2.8432,2.8417,2.8416,2.841,2.8401,2.8388,2.8385,2.838,2.8363,2.8343,2.8332,2.8324,2.8317,2.8314,2.833,2.8318,2.8263,2.8254,2.8245,2.8241,2.8331,2.8331,2.8377,2.8377,2.8378]}]]